Location: Bismarck
(46.7731°N, 100.8200°W)
Time: 06:31:46
(UTC-06:00)

ISS - Pass Details

Date: 28 November 2017
Orbit: 403 x 407 km, 51.6° (Epoch: 12 December)

Event Time Altitude Azimuth Distance (km) Brightness Sun altitude
Rises 23:45:35 0° 296° (WNW) 2,330 - -63.1°
Reaches altitude 10° 23:47:41 10° 298° (WNW) 1,466 - -63.2°
Maximum altitude 23:50:58 74° 23° (NNE) 424 - -63.4°
Drops below altitude 10° 23:54:14 10° 110° (ESE) 1,458 - -63.6°
Sets 23:56:18 0° 112° (ESE) 2,314 - -63.7°
